This is the latest recevied weather packets stored in our database for station/object KO4ZGL-13. If no packets are shown the sender has not sent any weather packets the latest 10 day(s).
| Time | Temp. | Humidity | Pressure | Rain* | Wind** | Luminosity | Snow |
|---|---|---|---|---|---|---|---|
| 1778077958 | 23.89° C | 76% | 1017.4 hPa | 0 mm | - | 382 W/m² | - |
| 1778077656 | 23.89° C | 74% | 1017.2 hPa | 0 mm | - | 266 W/m² | - |
| 1778077354 | 23.89° C | 73% | 1017.1 hPa | 0 mm | - | 428 W/m² | - |
| 1778077052 | 23.89° C | 74% | 1017.2 hPa | 0 mm | - | 259 W/m² | - |
| 1778076750 | 23.89° C | 73% | 1017.3 hPa | 0 mm | - | 159 W/m² | - |
| 1778076447 | 24.44° C | 73% | 1017.1 hPa | 0 mm | - | 404 W/m² | - |
| 1778076144 | 23.89° C | 75% | 1017.3 hPa | 0 mm | - | 611 W/m² | - |
| 1778075840 | 23.89° C | 75% | 1017.3 hPa | 0 mm | - | 249 W/m² | - |
| 1778075537 | 23.89° C | 76% | 1017.1 hPa | 0 mm | - | 293 W/m² | - |
| 1778075234 | 23.89° C | 77% | 1017.3 hPa | 0 mm | - | 300 W/m² | - |
| 1778074930 | 23.33° C | 78% | 1017.3 hPa | 0 mm | - | 392 W/m² | - |
| 1778074628 | 22.78° C | 80% | 1017.3 hPa | 0 mm | - | 305 W/m² | - |
| 1778074324 | 22.78° C | 82% | 1017.2 hPa | 0 mm | - | 170 W/m² | - |
| 1778074021 | 22.78° C | 82% | 1017.4 hPa | 0 mm | - | 161 W/m² | - |
| 1778073718 | 22.78° C | 83% | 1017.1 hPa | 0 mm | - | 145 W/m² | - |
| 1778073416 | 22.78° C | 82% | 1016.9 hPa | 0 mm | - | 190 W/m² | - |
| 1778073111 | 22.78° C | 83% | 1017 hPa | 0 mm | - | 262 W/m² | - |
| 1778072809 | 23.33° C | 82% | 1016.9 hPa | 0 mm | - | 362 W/m² | - |
| 1778072506 | 22.22° C | 84% | 1017 hPa | 0 mm | - | 346 W/m² | - |
| 1778072204 | 22.22° C | 86% | 1017.2 hPa | 0 mm | - | 266 W/m² | - |
| 1778071901 | 21.67° C | 87% | 1016.9 hPa | 0 mm | - | 133 W/m² | - |
| 1778071599 | 21.11° C | 88% | 1016.9 hPa | 0 mm | - | 133 W/m² | - |
| 1778071297 | 20.56° C | 89% | 1016.6 hPa | 0 mm | - | 84 W/m² | - |
| 1778070994 | 20.56° C | 91% | 1017.1 hPa | 0 mm | - | 73 W/m² | - |
| 1778070693 | 20° C | 93% | 1016.7 hPa | 0 mm | - | 64 W/m² | - |
* Rain latest hour (hover to see other rain measurements)
** Current wind speed in m/s (hover to see current wind gust speed)